Location: Antin
(43.3330°N, 0.2804°E)
Time: 03:47:45
(UTC+00:00)

CSL-04 Rocket - Pass Details

Date: 16 October 2021
Orbit: 805 x 860 km, 98.9° (Epoch: 02 December)

Event Time Altitude Azimuth Distance (km) Brightness Sun altitude
Exits shadow 19:30:14 40° 170° (S) 1,227 4.3 -25.4°
Maximum altitude 19:32:18 85° 256° (WSW) 864 3.7 -25.8°
Drops below altitude 10° 19:37:53 10° 345° (NNW) 2,504 6.5 -26.8°
Sets 19:40:17 0° 346° (NNW) 3,447 7.2 -27.2°
